sat.trackr.live / text

‹ back to catalog

STARLINK-4559

NORAD 53574 · 2022-101AZ

PAYLOAD ACTIVE UNKNOWN

§ Identity

Operator
Country
US
Launch date
2022-08-19
Launch site
AFETR
Launch vehicle
Mass (kg)
RCS (m²)

Purposes: comms

External: N2YO · Heavens-Above · Gunter

§ Orbital elements

Epoch: 2026-05-25T00:39:23.229216Z

Period
95.44 min
Inclination
53.2127°
Eccentricity
0.0001299
Mean motion
15.08856462 rev/d
Perigee alt
538.8 km
Apogee alt
540.6 km
Semi-major
6,917.8 km
B*
-2.2008e-4
RAAN
71.1411°
Arg perigee
80.5818°
Mean anomaly
279.5321°
Rev number
20,797

§ Raw data

STARLINK-45591 53574U 22101AZ  26145.02735219 -.00003790  00000+0 -22008-3 0  99922 53574  53.2127  71.1411 0001299  80.5818 279.5321 15.08856462207971

JSON: /api/v1/satellites/53574 · /tle

For live sub-satellite position, see the globe view (requires WebGL).

§ Visibility from observer

Set your observer location to see the next 7 days of passes ≥ 10°. The values pass through the URL so the page stays shareable.

No JS? Fill the form by hand. The geolocation button needs JavaScript.